STARLINK-1405 (45702 NORAD) Tracking and Keplerian Element Data

This shows tracking and keplerian element data for the satellite.

Feedback or suggestion? Click here.




ElementValue
Catalog45702
NameSTARLINK-1405
Epoch Orbit708
Epoch Day192.16668981
Epoch Year2020
RAAN343.1001
Inclination52.9948
Eccentricity0.0001175
Argument of Perigee53.9823
Mean Anonmoly238.224
Mean Motion15.86284745
Decay Rate-0.00789804
L11 45702U 20035AX 20192.16668981 -.00789804 00000-0 -33786-2 0 9994
L22 45702 52.9948 343.1001 0001175 53.9823 238.2240 15.86284745 7089

Live tracking and technical data element details for STARLINK-1405 (NORAD 45702). STARLINK-1405 can be tracked NOW for your location showing map with azimuth and elevation plus other details from your city location.

Track the satellite on the map from your city or location and see movement details for azimuth, elevation, latitude, longitude, range, height, and movement on the map or in text.







IsCatalogInMostPopularTable: catalog: 45702, numindb: 6
Update: records affected: 1



GetName: 45702 STARLINK-1405

Hit Count: updated at: Fri, 10 Jul 2020 16:23:22 GMT